Regional Weather Roundup
Issued by NWS New Orleans/Baton Rouge, LA

Home | Current Version | Previous Version | Text Only | Print | Product List | Glossary On
Versions: 1 2 3 4 5 6 7 8 9 10 11 12 13 14 15 16 17 18 19 20 21 22 23 24 25 26 27
000
ASUS44 KLIX 262113
RWRLIX
NEW ORLEANS REGIONAL WEATHER ROUNDUP
NATIONAL WEATHER SERVICE NEW ORLEANS LA
400 PM CDT WED JUL 26 2017

NOTE: "FAIR" INDICATES FEW OR NO CLOUDS BELOW 12,000 FEET WITH NO
      SIGNIFICANT WEATHER AND/OR OBSTRUCTIONS TO VISIBILITY.
      SKY/WX - SKY CONDITION AND SIGNIFICANT WEATHER.
      TMP - AIR TEMPERATURE.     DP    - DEWPOINT TEMPERATURE.
      RH  - RELATIVE HUMIDITY.   PRES  - PRESSURE.
      HI  - HEAT INDEX.          WCI   - WIND CHILL INDEX.

*  THESE STATIONS ARE NOT NWS OR FAA STATIONS AND ARE NOT UNDER
   NWS QUALITY CONTROL.

LAZ038-040-048-061>063-065>067-069-262200-
SOUTHEAST LOUISIANA

CITY           SKY/WX    TMP DP  RH WIND       PRES   REMARKS
N.O. INTL ARPT CLOUDY    92  70  48 W6        30.07F HX  97
N.O. LAKEFRONT CLOUDY    91  74  57 W6        30.07F HX 100
N.O. DOWNTOWN*   N/A     94  71  47 CALM        N/A  HX 101
RESERVE*         N/A     95  69  43 CALM      30.07F HX 100
SLIDELL        CLOUDY    89  75  63 VRB5      30.06F HX  99
BATON ROUGE    SUNNY     94  62  34 CALM      30.07F
BOOTHVILLE     SUNNY     89  75  63 NE5       30.08F HX  99
BELLE CHASSE   NOT AVBL
BOGALUSA*      MOCLDY    93  74  54 W7        30.08F HX 103
GALLIANO*      CLEAR     93  68  44 NE3       30.07F HX  97
NEW ROADS*       N/A     91  75  58 CALM      30.08F HX 102
GONZALES*        N/A     94  68  43 SE5       30.06F HX  98
HAMMOND*       SUNNY     97  59  28 N6        30.06F HX  96
HOUMA*         SUNNY     93  66  40 N5        30.07F HX  96
PORT FOURCHON* PTCLDY    90  75  62 S9        30.08F HX 100

$$

MSZ070-080>082-262200-
SOUTHERN MISSISSIPPI

CITY           SKY/WX    TMP DP  RH WIND       PRES   REMARKS
MCCOMB         SUNNY     92  63  38 NW7       30.09F
GULFPORT       CLOUDY    84  78  82 S6        30.05F HX  95
BILOXI         MOSUNNY   90  78  68 SW10      30.05F HX 105
PASCAGOULA     PTSUNNY   92  72  51 NE6       30.05F HX  99
STENNIS ARPT*  LGT RAIN  81  79  94 SW7       30.07F

$$

COASTAL OBSERVATIONS
LAKE AND NEARSHORE STATIONS

STATION/POSITION TIME  TEMP    WIND        PRES    WAVE
                       AIR SEA DIR/SP/G            HT/PER
                 (UTC) (F)     (DEG/KT/KT) (MB)    (FT/S)
PASCAGOULA       2048   88     210/  9/ 11 1017.5
WAVELAND YACHT   2048   85 85  240/  4/  8 1018.2
GRAND ISLE       2048   90 86  360/  2/  4 1018.8
SOUTHWEST PASS   2048   89     360/  8/ 10   N/A
NEW CANAL        2018   90 87  320/  2/  5 1018.6
SHELL BEACH      2048   90 90   40/  4/  5 1018.5

OFFSHORE STATIONS

STATION/POSITION TIME  TEMP    WIND        PRES    WAVE
                       AIR SEA DIR/SP/G            HT/PER
                 (UTC) (F)     (DEG/KT/KT) (MB)    (FT/S)
64 S DAUPHIN ISL 2050   84 86   10/  4/  6 1018.5    1/ 4

$$





USA.gov is the U.S. government's official web portal to all federal, state and local government web resources and services.